This demonstration page uses our WeatherBlox Daily Observations layout. Learn more.

Left ArrowRight Arrow

39.08367, -84.50855

Hourly Observations for August 24, 2017

Temp ( °F °C ) Dew Point ( °F °C ) Humidity (%) Winds ( mph kmh ) Pressure ( in mb ) Visibility ( mi km ) Precip ( " mm )
12:53 am 00:53 Clear 59 15 58 14.4 96 96 NE 3 6 30.02 1017 10 16.0934 N/A
1:53 am 01:53 Clear 58 14.4 58 14.4 100 100 N N/A 30.02 1017 10 16.0934 N/A
2:53 am 02:53 Clear 57 13.9 56 13.3 96 96 ENE 3 6 30.02 1017 10 16.0934 N/A
3:53 am 03:53 Clear 56 13.3 56 13.3 100 100 N N/A 30.03 1017 8 12.87472 N/A
4:53 am 04:53 Clear with Mist and Fog 55 12.8 55 12.8 100 100 N N/A 30.03 1017 5 8.0467 N/A
5:53 am 05:53 Clear 55 12.8 55 12.8 100 100 N N/A 30.04 1017 9 14.48406 N/A
6:53 am 06:53 Clear with Patchy Fog 54 12.2 54 12.2 100 100 N N/A 30.06 1018 10 16.0934 N/A
7:53 am 07:53 Sunny 57 13.9 56 13.3 96 96 NE 3 6 30.06 1018 9 14.48406 N/A
8:53 am 08:53 Sunny 62 16.7 60 15.6 93 93 N N/A 30.07 1018 10 16.0934 N/A
9:53 am 09:53 Sunny 67 19.4 58 14.4 73 73 N N/A 30.07 1018 10 16.0934 N/A
10:53 am 10:53 Sunny 72 22.2 53 11.7 52 52 NNW 10 17 30.08 1019 10 16.0934 N/A
11:53 am 11:53 Sunny 75 23.9 50 10 41 41 NNE 6 9 30.08 1019 10 16.0934 N/A
12:53 pm 12:53 Sunny 77 25 51 10.6 40 40 NNW 10 17 30.07 1018 10 16.0934 N/A
1:53 pm 13:53 Partly Cloudy 78 25.6 51 10.6 39 39 NNE 8 13 30.05 1018 10 16.0934 N/A
2:53 pm 14:53 Partly Cloudy 79 26.1 52 11.1 39 39 NNW 9 15 30.05 1018 10 16.0934 N/A
3:53 pm 15:53 Partly Cloudy 79 26.1 50 10 36 36 NNE 17 28 30.04 1017 10 16.0934 N/A
4:53 pm 16:53 Partly Cloudy 79 26.1 51 10.6 38 38 NW 10 17 30.04 1017 10 16.0934 N/A
5:53 pm 17:53 Cloudy 80 26.7 52 11.1 38 38 VRB 5 7 30.04 1017 10 16.0934 N/A
6:53 pm 18:53 Mostly Cloudy 76 24.4 54 12.2 47 47 ENE 7 11 30.03 1017 10 16.0934 N/A
7:53 pm 19:53 Mostly Cloudy 72 22.2 55 12.8 55 55 ENE 6 9 30.04 1017 10 16.0934 N/A
8:53 pm 20:53 Clear 65 18.3 58 14.4 78 78 N N/A 30.06 1018 10 16.0934 N/A
9:53 pm 21:53 Clear 62 16.7 58 14.4 86 86 NNE 5 7 30.07 1018 10 16.0934 N/A
10:53 pm 22:53 Clear 61 16.1 58 14.4 90 90 N N/A 30.09 1019 10 16.0934 N/A
11:53 pm 23:53 Clear 59 15 58 14.4 96 96 N N/A 30.1 1019 10 16.0934 N/A

Powered by AerisWeather